This is the latest recevied weather packets stored in our database for station/object AA0RD-13. If no packets are shown the sender has not sent any weather packets the latest 10 day(s).
| Time | Temp. | Humidity | Pressure | Rain* | Wind** | Luminosity | Snow |
|---|---|---|---|---|---|---|---|
| 1777888407 | 12.22° C | 87% | 1009.4 hPa | 0 mm | - | - | - |
| 1777888119 | 12.22° C | 87% | 1009.4 hPa | 0 mm | - | - | - |
| 1777886309 | 11.67° C | 87% | 1009 hPa | 0 mm | - | - | - |
| 1777886001 | 11.67° C | 86% | 1008.9 hPa | 0 mm | - | - | - |
| 1777885712 | 12.22° C | 85% | 1008.9 hPa | 0 mm | - | - | - |
| 1777885099 | 12.22° C | 85% | 1008.9 hPa | 0 mm | - | - | - |
| 1777883596 | 11.67° C | 87% | 1009 hPa | 0 mm | - | - | - |
| 1777881811 | 12.22° C | 83% | 1009 hPa | 0 mm | - | - | - |
| 1777881213 | 12.78° C | 83% | 1009.1 hPa | 0 mm | - | - | - |
| 1777880596 | 12.78° C | 82% | 1009.2 hPa | 0 mm | - | - | - |
| 1777880308 | 12.78° C | 81% | 1009.3 hPa | 0 mm | - | - | - |
| 1777877612 | 13.89° C | 80% | 1009.4 hPa | 0 mm | - | - | - |
| 1777877306 | 13.89° C | 80% | 1009.3 hPa | 0 mm | - | - | - |
| 1777876998 | 13.89° C | 81% | 1009.4 hPa | 0 mm | - | - | - |
| 1777876401 | 13.33° C | 83% | 1009.4 hPa | 0 mm | - | - | - |
| 1777875804 | 12.78° C | 84% | 1009.6 hPa | 0 mm | - | - | - |
| 1777875207 | 12.78° C | 84% | 1009.6 hPa | 0 mm | - | - | - |
| 1777874919 | 12.78° C | 84% | 1009.6 hPa | 0 mm | - | - | - |
| 1777874305 | 12.78° C | 83% | 1009.7 hPa | 0 mm | - | - | - |
| 1777873997 | 12.78° C | 83% | 1009.8 hPa | 0 mm | - | - | - |
| 1777873400 | 12.78° C | 84% | 1009.8 hPa | 0 mm | - | - | - |
| 1777871632 | 16.11° C | 68% | 1009.7 hPa | 0 mm | - | - | - |
| 1777869511 | 15° C | 71% | 1009.5 hPa | 0 mm | - | - | - |
| 1777869203 | 15.56° C | 68% | 1009.4 hPa | 0 mm | - | - | - |
| 1777868898 | 16.67° C | 66% | 1009.5 hPa | 0 mm | - | - | - |
* Rain latest hour (hover to see other rain measurements)
** Current wind speed in m/s (hover to see current wind gust speed)